Location: Kott?ru
(16.6209°N, 80.6208°E)
Time: 17:06:19
(UTC+00:00)

OAO 3 Rocket - Pass Details

Date: 18 September 2020
Orbit: 629 x 682 km, 35.0° (Epoch: 20 October)

Event Time Altitude Azimuth Distance (km) Brightness Sun altitude
Exits shadow 23:27:36 10° 213° (SSW) 2,118 5.4 -14.8°
Reaches altitude 10° 23:27:40 10° 213° (SSW) 2,094 5.4 -14.8°
Maximum altitude 23:32:16 41° 144° (SE) 979 4.3 -13.7°
Drops below altitude 10° 23:36:54 10° 74° (ENE) 2,109 7.2 -12.6°
Sets 23:39:24 0° 67° (ENE) 3,025 8.2 -12.0°
